Weather History for KOSA - May, 2013

Change the Weather History Date:

Sunday, May 26, 2013

  Actual Average (KGGG) Record (KGGG)
Temperature  
Mean Temperature 73 °F 75 °F  
Max Temperature 80 °F 86 °F 98 °F (1942)
Min Temperature 66 °F 65 °F 50 °F (1930)
Degree Days  
Heating Degree Days 0 0  
Month to date heating degree days 8  
Since 1 July heating degree days 2257  
Cooling Degree Days 8 10  
Month to date cooling degree days 200  
Year to date cooling degree days 323  
Growing Degree Days 23 (Base 50)    
Moisture  
Dew Point 65 °F    
Average Humidity 78    
Maximum Humidity 94    
Minimum Humidity 57    
Precipitation  
Precipitation 0.00 in 0.17 in 1.66 in (1957)
Month to date precipitation 3.99  
Year to date precipitation 18.92  
Snow  
Snow 0.00 in - - ()
Month to date snowfall  
Since 1 July snowfall  
Snow Depth -    
Sea Level Pressure  
Sea Level Pressure 30.09 in    
Wind  
Wind Speed 4 mph (SE)    
Max Wind Speed 13 mph    
Max Gust Speed 22 mph    
Visibility 9 miles    
Events      
T = Trace of Precipitation, MM = Missing Value Source: NWS Daily Summary

Daily Weather History Graph

Daily Weather History Graph

Search for Another Location

Airport or City:

Trip Planner

Search our weather history database for the weather conditions in past years. The results will help you decide how hot, cold, wet, or windy it might be!

Date:

Astronomy

May. 26, 2013 Rise Set
Actual Time 6:13 AM CDT 8:20 PM CDT
Civil Twilight 5:45 AM CDT 8:48 PM CDT
Nautical Twilight 5:11 AM CDT 9:22 PM CDT
Astronomical Twilight 4:35 AM CDT 9:59 PM CDT
Moon 10:10 PM CDT (5/26) 7:43 AM CDT (5/26)
Length of Visible Light 15h 02m
Length of Day
14h 06m
Waning Gibbous, 96% of the Moon is Illuminated
May 26
Waning Gibbous
May 31
Last Quarter
Jun 8
New
Jun 16
First Quarter
Jun 23
Full

Hourly Weather History & Observations

Time (CDT) Temp. Heat Index Dew Point Humidity Pressure Visibility Wind Dir Wind Speed Gust Speed Precip Events Conditions
12:15 AM 66.2 °F - 62.6 °F 88% 30.12 in 10.0 mi Calm Calm - N/A   Clear
12:35 AM 66.2 °F - 62.6 °F 88% 30.12 in 10.0 mi Calm Calm - N/A   Clear
12:55 AM 66.2 °F - 62.6 °F 88% 30.13 in 10.0 mi South 3.5 mph - N/A   Clear
1:15 AM 66.2 °F - 62.6 °F 88% 30.13 in 10.0 mi Calm Calm - N/A   Clear
1:35 AM 66.2 °F - 62.6 °F 88% 30.12 in 10.0 mi Calm Calm - N/A   Clear
1:55 AM 66.2 °F - 62.6 °F 88% 30.12 in 7.0 mi Calm Calm - N/A   Clear
2:15 AM 66.2 °F - 62.6 °F 88% 30.10 in 7.0 mi Calm Calm - N/A   Clear
2:35 AM 66.2 °F - 62.6 °F 88% 30.10 in 10.0 mi Calm Calm - N/A   Clear
2:55 AM 66.2 °F - 62.6 °F 88% 30.11 in 7.0 mi Calm Calm - N/A   Clear
3:15 AM 68.0 °F - 62.6 °F 83% 30.11 in 10.0 mi Calm Calm - N/A   Clear
3:35 AM 66.2 °F - 62.6 °F 88% 30.11 in 7.0 mi ENE 3.5 mph - N/A   Clear
3:55 AM 66.2 °F - 62.6 °F 88% 30.11 in 10.0 mi East 4.6 mph - N/A   Clear
4:15 AM 66.2 °F - 62.6 °F 88% 30.12 in 10.0 mi East 3.5 mph - N/A   Clear
4:35 AM 68.0 °F - 62.6 °F 83% 30.11 in 10.0 mi ESE 4.6 mph - N/A   Clear
4:55 AM 68.0 °F - 62.6 °F 83% 30.11 in 10.0 mi ESE 4.6 mph - N/A   Clear
5:15 AM 68.0 °F - 62.6 °F 83% 30.11 in 10.0 mi ESE 4.6 mph - N/A   Clear
5:35 AM 68.0 °F - 62.6 °F 83% 30.12 in 7.0 mi ESE 5.8 mph - N/A   Clear
5:55 AM 68.0 °F - 62.6 °F 83% 30.12 in 7.0 mi East 5.8 mph - N/A   Scattered Clouds
6:15 AM 68.0 °F - 64.4 °F 88% 30.12 in 7.0 mi ESE 5.8 mph - N/A   Mostly Cloudy
6:35 AM 68.0 °F - 64.4 °F 88% 30.12 in 7.0 mi Calm Calm - N/A   Scattered Clouds
6:55 AM 68.0 °F - 64.4 °F 88% 30.12 in 5.0 mi Calm Calm - N/A   Clear
7:15 AM 68.0 °F - 64.4 °F 88% 30.12 in 5.0 mi Calm Calm - N/A   Clear
7:35 AM 68.0 °F - 64.4 °F 88% 30.12 in 5.0 mi Calm Calm - N/A   Scattered Clouds
7:55 AM 68.0 °F - 64.4 °F 88% 30.13 in 4.0 mi Calm Calm - N/A   Overcast
8:15 AM 69.8 °F - 66.2 °F 88% 30.12 in 4.0 mi ESE 5.8 mph - N/A   Overcast
8:35 AM 69.8 °F - 66.2 °F 88% 30.13 in 4.0 mi SE 6.9 mph - N/A   Overcast
8:55 AM 69.8 °F - 68.0 °F 94% 30.14 in 4.0 mi SE 4.6 mph - N/A   Mostly Cloudy
9:15 AM 71.6 °F - 68.0 °F 88% 30.14 in 4.0 mi SE 4.6 mph - N/A   Scattered Clouds
9:35 AM 71.6 °F - 68.0 °F 88% 30.14 in 5.0 mi SE 5.8 mph - N/A   Mostly Cloudy
9:55 AM 71.6 °F - 68.0 °F 88% 30.14 in 5.0 mi Calm Calm - N/A   Scattered Clouds
10:15 AM 73.4 °F - 68.0 °F 83% 30.14 in 5.0 mi ESE 3.5 mph - N/A   Scattered Clouds
10:35 AM 73.4 °F - 68.0 °F 83% 30.14 in 7.0 mi SSE 4.6 mph - N/A   Mostly Cloudy
10:55 AM 77.0 °F - 68.0 °F 74% 30.14 in 10.0 mi SSE 3.5 mph - N/A   Scattered Clouds
11:15 AM 78.8 °F - 64.4 °F 61% 30.15 in 10.0 mi SSW 10.4 mph - N/A   Scattered Clouds
11:35 AM 78.8 °F - 62.6 °F 57% 30.15 in 10.0 mi South 11.5 mph 17.3 mph N/A   Scattered Clouds
11:55 AM 78.8 °F - 64.4 °F 61% 30.15 in 10.0 mi SSW 8.1 mph - N/A   Scattered Clouds
12:15 PM 77.0 °F - 62.6 °F 61% 30.15 in 10.0 mi SSW 11.5 mph 16.1 mph N/A   Clear
12:35 PM 77.0 °F - 62.6 °F 61% 30.15 in 10.0 mi SSW 5.8 mph - N/A   Scattered Clouds
12:55 PM 73.4 °F - 64.4 °F 73% 30.15 in 7.0 mi SSE 6.9 mph - N/A   Mostly Cloudy
1:15 PM 73.4 °F - 64.4 °F 73% 30.15 in 10.0 mi South 5.8 mph - N/A   Scattered Clouds
1:35 PM 73.4 °F - 64.4 °F 73% 30.15 in 10.0 mi SSE 4.6 mph - N/A   Scattered Clouds
1:55 PM 71.6 °F - 64.4 °F 78% 30.14 in 5.0 mi East 6.9 mph - N/A   Mostly Cloudy
2:15 PM 69.8 °F - 64.4 °F 83% 30.13 in 7.0 mi East 6.9 mph - N/A   Scattered Clouds
2:35 PM 69.8 °F - 64.4 °F 83% 30.12 in 10.0 mi East 6.9 mph - N/A   Clear
2:55 PM 73.4 °F - 64.4 °F 73% 30.11 in 10.0 mi East 9.2 mph - N/A   Clear
3:15 PM 73.4 °F - 64.4 °F 73% 30.10 in 10.0 mi East 9.2 mph - N/A   Clear
3:35 PM 77.0 °F - 64.4 °F 65% 30.09 in 10.0 mi ESE 6.9 mph - N/A   Clear
3:55 PM 77.0 °F - 66.2 °F 69% 30.07 in 10.0 mi ESE 11.5 mph - N/A   Clear
4:15 PM 78.8 °F - 68.0 °F 69% 30.06 in 10.0 mi ESE 10.4 mph - N/A   Clear
4:35 PM 78.8 °F - 66.2 °F 65% 30.05 in 10.0 mi SE 12.7 mph 18.4 mph N/A   Clear
4:55 PM 80.6 °F 83.2 °F 68.0 °F 65% 30.05 in 10.0 mi SE 11.5 mph 21.9 mph N/A   Clear
5:15 PM 78.8 °F - 66.2 °F 65% 30.05 in 10.0 mi SSE 12.7 mph 18.4 mph N/A   Scattered Clouds
5:35 PM 78.8 °F - 66.2 °F 65% 30.04 in 10.0 mi SE 9.2 mph - N/A   Clear
5:55 PM 78.8 °F - 66.2 °F 65% 30.03 in 10.0 mi SE 9.2 mph - N/A   Clear
6:15 PM 78.8 °F - 66.2 °F 65% 30.02 in 10.0 mi SE 9.2 mph - N/A   Clear
6:35 PM 78.8 °F - 66.2 °F 65% 30.02 in 10.0 mi ESE 8.1 mph - N/A   Clear
6:55 PM 77.0 °F - 66.2 °F 69% 30.02 in 10.0 mi ESE 6.9 mph - N/A   Clear
7:15 PM 77.0 °F - 64.4 °F 65% 30.02 in 10.0 mi ESE 6.9 mph - N/A   Clear
7:35 PM 77.0 °F - 66.2 °F 69% 30.02 in 10.0 mi ESE 5.8 mph - N/A   Clear
7:55 PM 77.0 °F - 66.2 °F 69% 30.02 in 10.0 mi ESE 6.9 mph - N/A   Clear
8:15 PM 75.2 °F - 64.4 °F 69% 30.02 in 10.0 mi ESE 6.9 mph - N/A   Clear
8:35 PM 75.2 °F - 64.4 °F 69% 30.02 in 10.0 mi Calm Calm - N/A   Clear
8:55 PM 73.4 °F - 64.4 °F 73% 30.02 in 10.0 mi Calm Calm - N/A   Clear
9:15 PM 73.4 °F - 66.2 °F 78% 30.03 in 10.0 mi Calm Calm - N/A   Clear
9:35 PM 73.4 °F - 66.2 °F 78% 30.03 in 10.0 mi ESE 8.1 mph - N/A   Clear
9:55 PM 73.4 °F - 66.2 °F 78% 30.03 in 10.0 mi SE 5.8 mph - N/A   Clear
10:15 PM 73.4 °F - 66.2 °F 78% 30.04 in 10.0 mi Calm Calm - N/A   Clear
10:35 PM 73.4 °F - 68.0 °F 83% 30.05 in 10.0 mi SE 6.9 mph - N/A   Clear
10:55 PM 73.4 °F - 68.0 °F 83% 30.05 in 10.0 mi ESE 8.1 mph - N/A   Clear
11:15 PM 73.4 °F - 68.0 °F 83% 30.05 in 10.0 mi ESE 8.1 mph - N/A   Clear
11:35 PM 73.4 °F - 68.0 °F 83% 30.05 in 10.0 mi SE 8.1 mph - N/A   Clear
11:55 PM 73.4 °F - 68.0 °F 83% 30.05 in 10.0 mi SE 8.1 mph - N/A   Clear